IN3BXS Weather Reports


Display with metric or nautical units.
time (UTC)temp
F
wind
direction
speed
MPH
gust
MPH
rain 1hr
in
rain 24hr
in
rain mn
in
humidity
%
barometer
mb
20260506110028 51 276 0.0 8.0 0.04 0.08 0.08 38 1006.2
20260506103026 52 265 0.0 10.0 0.04 0.13 0.08 36 1006.0
20260506100026 51 202 0.0 6.0 0.00 0.08 0.04 38 1006.3
20260506093026 51 282 0.0 8.0 0.00 0.08 0.04 39 1006.3
20260506090026 50 319 0.0 6.0 0.00 0.08 0.04 41 1006.4
20260506083027 50 294 0.0 3.0 0.00 0.08 0.04 38 1006.6
20260506073026 48 198 0.0 4.0 0.00 0.08 0.04 48 1006.9
20260506043026 47 72 0.0 4.0 0.00 0.04 0.00 50 1007.3
20260506040026 46 116 0.0 0.0 0.00 0.04 0.00 50 1008.5
20260506033026 47 301 0.0 0.0 0.00 0.04 0.00 50 1008.4
20260506030026 46 295 0.0 3.0 0.00 0.04 0.00 50 1008.5
20260506023026 46 73 0.0 4.0 0.00 0.04 0.00 49 1008.6
20260506020026 47 71 0.0 0.0 0.00 0.04 0.00 50 1008.3
20260506013025 47 357 0.0 4.0 0.00 0.04 0.00 50 1009.5
20260506010026 47 84 0.0 0.0 0.00 0.04 0.00 50 1009.5
20260506003025 47 84 0.0 0.0 0.00 0.04 0.00 50 1009.5
20260506000026 47 248 0.0 0.0 0.00 0.04 0.00 50 1009.4
20260505233025 47 248 0.0 0.0 0.00 0.04 0.00 51 1009.4
20260505230026 47 118 0.0 2.0 0.00 0.04 0.00 52 1009.4
20260505223027 47 280 0.0 0.0 0.00 0.04 0.00 52 1009.5
20260505220026 45 280 0.0 0.0 0.00 0.04 0.04 50 1010.0
20260505213025 46 288 0.0 3.0 0.00 0.04 0.04 50 1010.9
20260505210026 46 327 0.0 2.0 0.00 0.04 0.04 48 1010.8
20260505203027 48 245 0.0 5.0 0.00 0.04 0.04 50 1010.4
20260505200025 47 357 0.0 4.0 0.00 0.04 0.04 49 1009.4
20260505190025 48 260 0.0 4.0 0.00 0.04 0.04 50 1009.1
20260505183025 48 286 0.0 6.0 0.00 0.04 0.04 49 1009.2
20260505180025 48 214 0.0 6.0 0.00 0.04 0.04 48 1009.1
20260505173025 49 261 0.0 8.0 0.00 0.04 0.04 45 1009.0
20260505163025 49 187 0.0 9.0 0.00 0.04 0.04 41 1008.9
20260505153026 50 272 0.0 8.0 0.00 0.04 0.04 43 1008.8
20260505123026 50 211 0.0 8.0 0.00 0.04 0.04 42 1009.8
20260505120025 49 276 0.0 6.0 0.00 0.04 0.04 48 1010.1
20260505113025 49 282 0.0 6.0 0.04 0.04 0.04 47 1010.2